Time,TemperatureF,DewpointF,PressureIn,WindDirection,WindDirectionDegrees,WindSpeedMPH,WindSpeedGustMPH,Humidity,HourlyPrecipIn,Conditions,Clouds,dailyrainin,SolarRadiationWatts/m^2,SoftwareType,DateUTC
2013-08-22 00:00:00,67.5,66.6,30.09,South,188,0.0,0.0,97,0.00,,---,0.01,0.00,VWS V14.01,2013-08-22 04:00:00,
2013-08-22 00:01:00,67.5,66.6,30.08,South,187,0.0,0.0,97,0.00,,---,0.01,0.00,VWS V14.01,2013-08-22 04:01:00,
2013-08-22 00:02:00,67.5,66.6,30.09,South,188,0.0,0.0,97,0.00,,---,0.01,0.00,VWS V14.01,2013-08-22 04:02:00,
2013-08-22 00:07:00,67.5,66.6,30.09,South,187,0.0,0.0,97,0.00,,---,0.01,0.00,VWS V14.01,2013-08-22 04:07:00,
2013-08-22 00:10:00,67.0,66.1,30.08,South,188,0.0,0.0,97,0.00,,---,0.00,0.00,VWS V14.01,2013-08-22 04:10:00,
2013-08-22 00:12:00,67.2,66.3,30.09,South,188,0.0,0.0,97,0.00,,---,0.00,0.00,VWS V14.01,2013-08-22 04:12:00,
2013-08-22 00:17:00,67.0,66.1,30.08,South,188,0.0,0.0,97,0.00,,---,0.00,0.00,VWS V14.01,2013-08-22 04:17:00,
2013-08-22 00:20:00,67.2,66.6,30.09,South,188,0.0,0.0,98,0.00,,---,0.00,0.00,VWS V14.01,2013-08-22 04:20:00,
2013-08-22 00:22:00,67.0,66.1,30.08,South,188,0.0,0.0,97,0.00,,---,0.00,0.00,VWS V14.01,2013-08-22 04:22:00,
2013-08-22 00:27:00,67.2,66.6,30.09,South,187,0.0,0.0,98,0.00,,---,0.00,0.00,VWS V14.01,2013-08-22 04:27:00,
2013-08-22 00:30:00,67.5,66.9,30.09,South,187,0.0,0.0,98,0.00,,---,0.00,0.00,VWS V14.01,2013-08-22 04:30:00,
2013-08-22 00:33:00,67.3,66.7,30.09,South,187,0.0,0.0,98,0.00,,---,0.00,0.00,VWS V14.01,2013-08-22 04:33:00,
2013-08-22 00:38:00,67.5,66.9,30.09,South,188,0.0,0.0,98,0.00,,---,0.00,0.00,VWS V14.01,2013-08-22 04:38:00,
2013-08-22 00:40:00,67.3,66.7,30.09,South,187,0.0,0.0,98,0.00,,---,0.00,0.00,VWS V14.01,2013-08-22 04:40:00,
2013-08-22 00:43:00,67.3,66.7,30.09,South,188,0.0,0.0,98,0.00,,---,0.00,0.00,VWS V14.01,2013-08-22 04:43:00,
2013-08-22 00:48:00,67.3,66.7,30.09,South,187,0.0,0.0,98,0.00,,---,0.00,0.00,VWS V14.01,2013-08-22 04:48:00,
2013-08-22 00:50:00,67.4,66.8,30.08,South,187,0.0,0.0,98,0.00,,---,0.00,0.00,VWS V14.01,2013-08-22 04:50:00,
2013-08-22 00:53:00,67.2,66.6,30.09,South,187,0.0,0.0,98,0.00,,---,0.00,0.00,VWS V14.01,2013-08-22 04:53:00,
2013-08-22 00:58:00,67.4,66.8,30.08,South,187,0.0,0.0,98,0.00,,---,0.00,0.00,VWS V14.01,2013-08-22 04:58:00,
2013-08-22 01:00:00,67.0,66.1,30.09,South,187,0.0,0.0,97,0.00,,---,0.00,0.00,VWS V14.01,2013-08-22 05:00:00,
2013-08-22 01:03:00,67.1,66.5,30.09,South,187,0.0,0.0,98,0.00,,---,0.00,0.00,VWS V14.01,2013-08-22 05:03:00,
2013-08-22 01:08:00,67.0,66.1,30.09,South,188,0.0,0.0,97,0.00,,---,0.00,0.00,VWS V14.01,2013-08-22 05:08:00,
2013-08-22 01:10:00,66.9,66.3,30.10,South,188,0.0,0.0,98,0.00,,---,0.00,0.00,VWS V14.01,2013-08-22 05:10:00,
2013-08-22 01:13:00,66.9,66.0,30.09,South,188,0.0,0.0,97,0.00,,---,0.00,0.00,VWS V14.01,2013-08-22 05:13:00,
2013-08-22 01:18:00,66.9,66.3,30.09,South,187,0.0,0.0,98,0.00,,---,0.00,0.00,VWS V14.01,2013-08-22 05:18:00,
2013-08-22 01:20:00,67.0,66.4,30.09,South,188,0.0,0.0,98,0.00,,---,0.00,0.00,VWS V14.01,2013-08-22 05:20:00,
2013-08-22 01:23:00,66.9,66.3,30.09,South,187,0.0,0.0,98,0.00,,---,0.00,0.00,VWS V14.01,2013-08-22 05:23:00,
2013-08-22 01:28:00,67.0,66.4,30.09,South,188,0.0,0.0,98,0.00,,---,0.00,0.00,VWS V14.01,2013-08-22 05:28:00,
2013-08-22 01:30:00,67.0,66.4,30.09,South,187,0.0,0.0,98,0.00,,---,0.00,0.00,VWS V14.01,2013-08-22 05:30:00,
2013-08-22 01:33:00,67.0,66.4,30.09,South,187,0.0,0.0,98,0.00,,---,0.00,0.00,VWS V14.01,2013-08-22 05:33:00,
2013-08-22 01:38:00,67.0,66.4,30.09,South,187,0.0,0.0,98,0.00,,---,0.00,0.00,VWS V14.01,2013-08-22 05:38:00,
2013-08-22 01:40:00,67.2,66.6,30.09,South,188,0.0,0.0,98,0.00,,---,0.00,0.00,VWS V14.01,2013-08-22 05:40:00,
2013-08-22 01:44:00,67.1,66.5,30.10,South,187,0.0,0.0,98,0.00,,---,0.00,0.00,VWS V14.01,2013-08-22 05:44:00,
2013-08-22 01:49:00,67.2,66.6,30.10,South,188,0.0,0.0,98,0.00,,---,0.00,0.00,VWS V14.01,2013-08-22 05:49:00,
2013-08-22 01:50:00,67.2,66.6,30.10,South,187,0.0,0.0,98,0.00,,---,0.00,0.00,VWS V14.01,2013-08-22 05:50:00,
2013-08-22 01:54:00,67.2,66.6,30.09,South,187,0.0,0.0,98,0.00,,---,0.00,0.00,VWS V14.01,2013-08-22 05:54:00,
2013-08-22 01:59:00,67.2,66.6,30.09,South,188,0.0,0.0,98,0.00,,---,0.00,0.00,VWS V14.01,2013-08-22 05:59:00,
2013-08-22 02:00:00,67.3,66.7,30.09,South,188,0.0,0.0,98,0.00,,---,0.00,0.00,VWS V14.01,2013-08-22 06:00:00,
2013-08-22 02:04:00,67.3,66.7,30.09,South,187,0.0,0.0,98,0.00,,---,0.00,0.00,VWS V14.01,2013-08-22 06:04:00,
2013-08-22 02:09:00,67.3,66.7,30.09,South,187,0.0,0.0,98,0.00,,---,0.00,0.00,VWS V14.01,2013-08-22 06:09:00,
2013-08-22 02:10:00,67.3,66.7,30.09,South,188,0.0,0.0,98,0.00,,---,0.00,0.00,VWS V14.01,2013-08-22 06:10:00,
2013-08-22 02:14:00,67.3,66.7,30.09,South,188,0.0,0.0,98,0.00,,---,0.00,0.00,VWS V14.01,2013-08-22 06:14:00,
2013-08-22 02:19:00,67.3,66.7,30.09,South,187,0.0,0.0,98,0.00,,---,0.00,0.00,VWS V14.01,2013-08-22 06:19:00,
2013-08-22 02:20:00,67.3,66.7,30.09,South,187,0.0,0.0,98,0.00,,---,0.00,0.00,VWS V14.01,2013-08-22 06:20:00,
2013-08-22 02:24:00,67.2,66.6,30.09,South,187,0.0,0.0,98,0.00,,---,0.00,0.00,VWS V14.01,2013-08-22 06:24:00,
2013-08-22 02:29:00,67.4,66.8,30.09,South,188,0.0,0.0,98,0.00,,---,0.00,0.00,VWS V14.01,2013-08-22 06:29:00,
2013-08-22 02:30:00,67.4,66.8,30.08,South,187,0.0,0.0,98,0.00,,---,0.00,0.00,VWS V14.01,2013-08-22 06:30:00,
2013-08-22 02:34:00,67.4,66.8,30.08,South,188,0.0,0.0,98,0.00,,---,0.00,0.00,VWS V14.01,2013-08-22 06:34:00,
2013-08-22 02:39:00,67.4,66.8,30.08,South,187,0.0,0.0,98,0.00,,---,0.00,0.00,VWS V14.01,2013-08-22 06:39:00,
2013-08-22 02:40:00,67.2,66.6,30.08,South,187,0.0,0.0,98,0.00,,---,0.00,0.00,VWS V14.01,2013-08-22 06:40:00,
2013-08-22 02:44:00,67.3,66.7,30.08,South,187,0.0,0.0,98,0.00,,---,0.00,0.00,VWS V14.01,2013-08-22 06:44:00,
2013-08-22 02:49:00,67.2,66.6,30.08,South,188,0.0,0.0,98,0.00,,---,0.00,0.00,VWS V14.01,2013-08-22 06:49:00,
2013-08-22 02:50:00,67.0,66.4,30.07,South,188,0.0,0.0,98,0.00,,---,0.00,0.00,VWS V14.01,2013-08-22 06:50:00,
2013-08-22 02:55:00,67.0,66.4,30.08,South,188,0.0,0.0,98,0.00,,---,0.00,0.00,VWS V14.01,2013-08-22 06:55:00,
2013-08-22 03:00:00,66.9,66.3,30.07,South,187,0.0,0.0,98,0.00,,---,0.00,0.00,VWS V14.01,2013-08-22 07:00:00,
2013-08-22 03:05:00,66.8,66.2,30.07,South,188,0.0,0.0,98,0.00,,---,0.00,0.00,VWS V14.01,2013-08-22 07:05:00,
2013-08-22 03:10:00,66.8,66.2,30.07,South,187,0.0,0.0,98,0.00,,---,0.00,0.00,VWS V14.01,2013-08-22 07:10:00,
2013-08-22 03:15:00,66.7,66.1,30.07,South,187,0.0,0.0,98,0.00,,---,0.00,0.00,VWS V14.01,2013-08-22 07:15:00,
2013-08-22 03:20:00,66.6,66.0,30.07,South,187,0.0,0.0,98,0.00,,---,0.00,0.00,VWS V14.01,2013-08-22 07:20:00,
2013-08-22 03:25:00,66.6,66.0,30.07,South,187,0.0,0.0,98,0.00,,---,0.00,0.00,VWS V14.01,2013-08-22 07:25:00,
2013-08-22 03:30:00,66.6,66.0,30.07,South,187,0.0,0.0,98,0.00,,---,0.00,0.00,VWS V14.01,2013-08-22 07:30:00,
2013-08-22 03:35:00,66.6,66.0,30.07,South,187,0.0,0.0,98,0.00,,---,0.00,0.00,VWS V14.01,2013-08-22 07:35:00,
2013-08-22 03:40:00,66.6,66.0,30.07,South,187,0.0,0.0,98,0.00,,---,0.00,0.00,VWS V14.01,2013-08-22 07:40:00,
2013-08-22 03:45:00,66.6,66.0,30.07,South,187,0.0,0.0,98,0.00,,---,0.00,0.00,VWS V14.01,2013-08-22 07:45:00,
2013-08-22 03:50:00,66.8,66.2,30.07,South,188,0.0,0.0,98,0.00,,---,0.00,0.00,VWS V14.01,2013-08-22 07:50:00,
2013-08-22 03:55:00,66.7,66.1,30.07,South,187,0.0,0.0,98,0.00,,---,0.00,0.00,VWS V14.01,2013-08-22 07:55:00,
2013-08-22 04:00:00,66.5,65.9,30.07,South,188,0.0,0.0,98,0.00,,---,0.00,0.00,VWS V14.01,2013-08-22 08:00:00,
2013-08-22 04:05:00,66.4,65.8,30.07,South,187,0.0,0.0,98,0.00,,---,0.00,0.00,VWS V14.01,2013-08-22 08:05:00,
2013-08-22 04:10:00,66.4,65.8,30.07,South,187,0.0,0.0,98,0.00,,---,0.00,0.00,VWS V14.01,2013-08-22 08:10:00,
2013-08-22 04:16:00,66.4,65.8,30.07,South,187,0.0,0.0,98,0.00,,---,0.00,0.00,VWS V14.01,2013-08-22 08:16:00,
2013-08-22 04:20:00,66.2,65.6,30.07,South,187,0.0,0.0,98,0.00,,---,0.00,0.00,VWS V14.01,2013-08-22 08:20:00,
2013-08-22 04:21:00,66.4,65.8,30.07,South,187,0.0,0.0,98,0.00,,---,0.00,0.00,VWS V14.01,2013-08-22 08:21:00,
2013-08-22 04:26:00,66.2,65.6,30.07,South,187,0.0,0.0,98,0.00,,---,0.00,0.00,VWS V14.01,2013-08-22 08:26:00,
2013-08-22 04:30:00,65.8,65.2,30.07,South,187,0.0,0.0,98,0.00,,---,0.00,0.00,VWS V14.01,2013-08-22 08:30:00,
2013-08-22 04:31:00,66.1,65.5,30.07,South,187,0.0,0.0,98,0.00,,---,0.00,0.00,VWS V14.01,2013-08-22 08:31:00,
2013-08-22 04:36:00,65.9,65.3,30.06,South,187,0.0,0.0,98,0.00,,---,0.00,0.00,VWS V14.01,2013-08-22 08:36:00,
2013-08-22 04:40:00,65.4,64.8,30.06,South,187,0.0,0.0,98,0.00,,---,0.00,0.00,VWS V14.01,2013-08-22 08:40:00,
2013-08-22 04:41:00,65.6,65.0,30.06,South,187,0.0,0.0,98,0.00,,---,0.00,0.00,VWS V14.01,2013-08-22 08:41:00,
2013-08-22 04:46:00,65.4,64.8,30.06,South,187,0.0,0.0,98,0.00,,---,0.00,0.00,VWS V14.01,2013-08-22 08:46:00,
2013-08-22 04:50:00,65.3,64.7,30.06,South,188,0.0,0.0,98,0.00,,---,0.00,0.00,VWS V14.01,2013-08-22 08:50:00,
2013-08-22 04:51:00,65.3,64.7,30.06,South,187,0.0,0.0,98,0.00,,---,0.00,0.00,VWS V14.01,2013-08-22 08:51:00,
2013-08-22 04:56:00,65.3,64.7,30.06,South,187,0.0,0.0,98,0.00,,---,0.00,0.00,VWS V14.01,2013-08-22 08:56:00,
2013-08-22 05:00:00,65.5,64.9,30.06,South,187,0.0,0.0,98,0.00,,---,0.00,0.00,VWS V14.01,2013-08-22 09:00:00,
2013-08-22 05:01:00,65.4,64.8,30.06,South,187,0.0,0.0,98,0.00,,---,0.00,0.00,VWS V14.01,2013-08-22 09:01:00,
2013-08-22 05:06:00,65.5,64.9,30.07,South,187,0.0,0.0,98,0.00,,---,0.00,0.00,VWS V14.01,2013-08-22 09:06:00,
2013-08-22 05:10:00,66.0,65.7,30.06,South,187,0.0,0.0,99,0.00,,---,0.00,0.00,VWS V14.01,2013-08-22 09:10:00,
2013-08-22 05:11:00,65.7,65.1,30.07,South,187,0.0,0.0,98,0.00,,---,0.00,0.00,VWS V14.01,2013-08-22 09:11:00,
2013-08-22 05:16:00,65.9,65.3,30.06,South,188,0.0,0.0,98,0.00,,---,0.00,0.00,VWS V14.01,2013-08-22 09:16:00,
2013-08-22 05:20:00,66.3,66.0,30.07,South,187,0.0,0.0,99,0.00,,---,0.00,0.00,VWS V14.01,2013-08-22 09:20:00,
2013-08-22 05:21:00,66.1,65.8,30.06,South,187,0.0,0.0,99,0.00,,---,0.00,0.00,VWS V14.01,2013-08-22 09:21:00,
2013-08-22 05:26:00,66.3,66.0,30.07,South,187,0.0,0.0,99,0.00,,---,0.00,0.00,VWS V14.01,2013-08-22 09:26:00,
2013-08-22 05:30:00,66.7,66.4,30.07,South,187,0.0,0.0,99,0.00,,---,0.00,0.00,VWS V14.01,2013-08-22 09:30:00,
2013-08-22 05:31:00,66.5,66.2,30.07,South,187,0.0,0.0,99,0.00,,---,0.00,0.00,VWS V14.01,2013-08-22 09:31:00,
2013-08-22 05:37:00,66.6,66.3,30.07,South,187,0.0,0.0,99,0.00,,---,0.00,0.00,VWS V14.01,2013-08-22 09:37:00,
2013-08-22 05:40:00,66.9,66.6,30.07,South,187,0.0,0.0,99,0.00,,---,0.00,0.00,VWS V14.01,2013-08-22 09:40:00,
2013-08-22 05:42:00,66.8,66.5,30.07,South,188,0.0,0.0,99,0.00,,---,0.00,0.00,VWS V14.01,2013-08-22 09:42:00,
2013-08-22 05:47:00,66.8,66.5,30.07,South,188,0.0,0.0,99,0.00,,---,0.00,0.00,VWS V14.01,2013-08-22 09:47:00,
2013-08-22 05:50:00,67.0,66.7,30.07,South,187,0.0,0.0,99,0.00,,---,0.00,0.00,VWS V14.01,2013-08-22 09:50:00,
2013-08-22 05:52:00,66.9,66.6,30.07,South,188,0.0,0.0,99,0.00,,---,0.00,0.00,VWS V14.01,2013-08-22 09:52:00,
2013-08-22 05:57:00,67.0,66.7,30.07,South,187,0.0,0.0,99,0.00,,---,0.00,0.00,VWS V14.01,2013-08-22 09:57:00,
2013-08-22 06:00:00,67.1,66.8,30.07,South,188,0.0,0.0,99,0.00,,---,0.00,0.00,VWS V14.01,2013-08-22 10:00:00,
2013-08-22 06:02:00,67.1,66.8,30.07,South,188,0.0,0.0,99,0.00,,---,0.00,0.00,VWS V14.01,2013-08-22 10:02:00,
2013-08-22 06:07:00,67.1,66.8,30.07,South,188,0.0,0.0,99,0.00,,---,0.00,0.00,VWS V14.01,2013-08-22 10:07:00,
2013-08-22 06:10:00,67.2,66.9,30.07,South,187,0.0,0.0,99,0.00,,---,0.00,0.00,VWS V14.01,2013-08-22 10:10:00,
2013-08-22 06:12:00,67.2,66.9,30.07,South,187,0.0,0.0,99,0.00,,---,0.00,0.00,VWS V14.01,2013-08-22 10:12:00,
2013-08-22 06:17:00,67.2,66.9,30.07,South,187,0.0,0.0,99,0.00,,---,0.00,0.00,VWS V14.01,2013-08-22 10:17:00,
2013-08-22 06:20:00,67.2,66.9,30.07,South,187,0.0,0.0,99,0.00,,---,0.00,0.00,VWS V14.01,2013-08-22 10:20:00,
2013-08-22 06:22:00,67.2,66.9,30.07,South,187,0.0,0.0,99,0.00,,---,0.00,0.00,VWS V14.01,2013-08-22 10:22:00,
2013-08-22 06:27:00,67.2,66.9,30.07,South,187,0.0,0.0,99,0.00,,---,0.00,0.00,VWS V14.01,2013-08-22 10:27:00,
2013-08-22 06:30:00,67.2,66.9,30.07,South,187,0.0,0.0,99,0.00,,---,0.00,0.00,VWS V14.01,2013-08-22 10:30:00,
2013-08-22 06:32:00,67.2,66.9,30.07,South,187,0.0,0.0,99,0.00,,---,0.00,0.00,VWS V14.01,2013-08-22 10:32:00,
2013-08-22 06:38:00,67.2,66.9,30.07,South,187,0.0,0.0,99,0.00,,---,0.00,0.00,VWS V14.01,2013-08-22 10:38:00,
2013-08-22 06:40:00,67.3,66.7,30.08,South,187,0.0,0.0,98,0.00,,---,0.00,0.00,VWS V14.01,2013-08-22 10:40:00,
2013-08-22 06:43:00,67.3,67.0,30.07,South,187,0.0,0.0,99,0.00,,---,0.00,0.00,VWS V14.01,2013-08-22 10:43:00,
2013-08-22 06:48:00,67.3,66.7,30.08,South,187,0.0,0.0,98,0.00,,---,0.00,0.00,VWS V14.01,2013-08-22 10:48:00,
2013-08-22 06:50:00,67.4,67.1,30.08,South,188,0.0,0.0,99,0.00,,---,0.00,0.00,VWS V14.01,2013-08-22 10:50:00,
2013-08-22 07:00:00,67.5,67.2,30.08,South,187,0.0,0.0,99,0.00,,---,0.00,0.00,VWS V14.01,2013-08-22 11:00:00,
2013-08-22 07:10:00,67.6,67.3,30.08,South,187,0.0,0.0,99,0.00,,---,0.00,9.00,VWS V14.01,2013-08-22 11:10:00,
2013-08-22 07:20:00,67.6,67.3,30.08,South,187,0.0,1.0,99,0.00,,---,0.00,14.00,VWS V14.01,2013-08-22 11:20:00,
2013-08-22 07:30:00,67.6,67.3,30.08,South,187,0.0,0.0,99,0.00,,---,0.00,25.00,VWS V14.01,2013-08-22 11:30:00,
2013-08-22 07:40:00,67.7,67.4,30.09,South,187,0.0,0.0,99,0.00,,---,0.00,32.00,VWS V14.01,2013-08-22 11:40:00,
2013-08-22 07:50:00,67.8,67.5,30.09,South,187,0.0,0.0,99,0.00,,---,0.00,39.00,VWS V14.01,2013-08-22 11:50:00,
2013-08-22 08:00:00,68.0,67.7,30.09,South,187,0.0,0.0,99,0.00,,---,0.00,47.00,VWS V14.01,2013-08-22 12:00:00,
2013-08-22 08:10:00,68.3,68.0,30.09,South,187,0.0,0.0,99,0.00,,---,0.00,69.00,VWS V14.01,2013-08-22 12:10:00,
2013-08-22 08:20:00,68.5,68.2,30.09,South,188,0.0,1.0,99,0.00,,---,0.00,81.00,VWS V14.01,2013-08-22 12:20:00,
2013-08-22 08:27:00,68.5,68.2,30.09,South,188,0.0,1.0,99,0.00,,---,0.00,81.00,VWS V14.01,2013-08-22 12:27:00,
2013-08-22 08:30:00,68.7,68.4,30.09,South,187,0.0,0.0,99,0.00,,---,0.00,109.00,VWS V14.01,2013-08-22 12:30:00,
2013-08-22 08:32:00,68.5,68.2,30.09,South,187,0.0,0.0,99,0.00,,---,0.00,86.00,VWS V14.01,2013-08-22 12:32:00,
2013-08-22 08:37:00,68.7,68.4,30.09,South,188,0.0,0.0,99,0.00,,---,0.00,111.00,VWS V14.01,2013-08-22 12:37:00,
2013-08-22 08:40:00,69.0,68.7,30.09,South,187,0.0,0.0,99,0.00,,---,0.00,121.00,VWS V14.01,2013-08-22 12:40:00,
2013-08-22 08:42:00,68.8,68.5,30.09,South,187,0.0,0.0,99,0.00,,---,0.00,98.00,VWS V14.01,2013-08-22 12:42:00,
2013-08-22 08:47:00,69.0,68.7,30.09,South,182,0.0,0.0,99,0.00,,---,0.00,121.00,VWS V14.01,2013-08-22 12:47:00,
2013-08-22 08:50:00,69.2,68.9,30.09,South,188,0.0,0.0,99,0.00,,---,0.00,204.00,VWS V14.01,2013-08-22 12:50:00,
2013-08-22 08:52:00,69.1,68.8,30.09,South,187,0.0,0.0,99,0.00,,---,0.00,116.00,VWS V14.01,2013-08-22 12:52:00,
2013-08-22 08:57:00,69.2,68.9,30.09,South,187,0.0,0.0,99,0.00,,---,0.00,171.00,VWS V14.01,2013-08-22 12:57:00,
2013-08-22 09:00:00,69.6,69.3,30.09,South,182,0.0,0.0,99,0.00,,---,0.00,223.00,VWS V14.01,2013-08-22 13:00:00,
2013-08-22 09:03:00,69.4,69.1,30.09,South,188,0.0,0.0,99,0.00,,---,0.00,178.00,VWS V14.01,2013-08-22 13:03:00,
2013-08-22 09:08:00,69.6,69.3,30.09,South,187,0.0,0.0,99,0.00,,---,0.00,223.00,VWS V14.01,2013-08-22 13:08:00,
2013-08-22 09:10:00,69.6,69.3,30.09,South,188,0.0,1.0,99,0.00,,---,0.00,130.00,VWS V14.01,2013-08-22 13:10:00,
2013-08-22 09:13:00,69.8,69.5,30.09,South,188,1.0,1.0,99,0.00,,---,0.00,114.00,VWS V14.01,2013-08-22 13:13:00,
2013-08-22 09:18:00,69.6,69.3,30.09,South,188,0.0,1.0,99,0.00,,---,0.00,130.00,VWS V14.01,2013-08-22 13:18:00,
2013-08-22 09:20:00,69.7,69.4,30.09,South,187,0.0,2.0,99,0.00,,---,0.00,137.00,VWS V14.01,2013-08-22 13:20:00,
2013-08-22 09:23:00,69.6,69.3,30.09,South,188,0.0,2.0,99,0.00,,---,0.00,158.00,VWS V14.01,2013-08-22 13:23:00,
2013-08-22 09:28:00,69.7,69.4,30.09,South,188,0.0,0.0,99,0.00,,---,0.00,137.00,VWS V14.01,2013-08-22 13:28:00,
2013-08-22 09:30:00,70.0,69.7,30.09,South,188,0.0,1.0,99,0.00,,---,0.00,146.00,VWS V14.01,2013-08-22 13:30:00,
2013-08-22 09:33:00,69.8,69.5,30.09,South,187,0.0,1.0,99,0.00,,---,0.00,162.00,VWS V14.01,2013-08-22 13:33:00,
2013-08-22 09:38:00,70.0,69.7,30.09,South,187,0.0,0.0,99,0.00,,---,0.00,146.00,VWS V14.01,2013-08-22 13:38:00,
2013-08-22 09:40:00,70.2,69.9,30.08,South,188,0.0,1.0,99,0.00,,---,0.00,183.00,VWS V14.01,2013-08-22 13:40:00,
2013-08-22 09:43:00,70.2,69.9,30.09,South,188,0.0,1.0,99,0.00,,---,0.00,185.00,VWS V14.01,2013-08-22 13:43:00,
2013-08-22 09:48:00,70.2,69.9,30.08,South,188,0.0,1.0,99,0.00,,---,0.00,183.00,VWS V14.01,2013-08-22 13:48:00,
2013-08-22 09:50:00,70.6,70.3,30.08,South,188,0.0,1.0,99,0.00,,---,0.00,302.00,VWS V14.01,2013-08-22 13:50:00,
2013-08-22 09:53:00,70.3,70.0,30.09,South,188,0.0,1.0,99,0.00,,---,0.00,225.00,VWS V14.01,2013-08-22 13:53:00,
2013-08-22 09:58:00,70.7,70.4,30.08,South,188,0.0,0.0,99,0.00,,---,0.00,274.00,VWS V14.01,2013-08-22 13:58:00,
2013-08-22 10:00:00,70.8,70.5,30.08,South,188,0.0,2.0,99,0.00,,---,0.00,269.00,VWS V14.01,2013-08-22 14:00:00,
2013-08-22 10:03:00,70.6,70.3,30.08,South,188,0.0,2.0,99,0.00,,---,0.00,246.00,VWS V14.01,2013-08-22 14:03:00,
2013-08-22 10:08:00,70.8,70.5,30.08,South,188,0.0,1.0,99,0.00,,---,0.00,241.00,VWS V14.01,2013-08-22 14:08:00,
2013-08-22 10:10:00,71.4,71.1,30.08,South,188,0.0,3.0,99,0.00,,---,0.00,603.00,VWS V14.01,2013-08-22 14:10:00,
2013-08-22 10:13:00,71.0,70.7,30.09,South,188,0.0,3.0,99,0.00,,---,0.00,406.00,VWS V14.01,2013-08-22 14:13:00,
2013-08-22 10:19:00,71.4,71.1,30.09,South,188,0.0,1.0,99,0.00,,---,0.00,603.00,VWS V14.01,2013-08-22 14:19:00,
2013-08-22 10:20:00,72.2,71.3,30.08,SW,234,0.0,6.0,97,0.00,,---,0.00,241.00,VWS V14.01,2013-08-22 14:20:00,
2013-08-22 10:24:00,72.0,71.4,30.08,NNE,19,6.0,6.0,98,0.00,,---,0.00,468.00,VWS V14.01,2013-08-22 14:24:00,
2013-08-22 10:29:00,72.2,71.3,30.08,SW,232,1.0,4.0,97,0.00,,---,0.00,279.00,VWS V14.01,2013-08-22 14:29:00,
2013-08-22 10:30:00,73.1,71.3,30.09,WSW,252,0.0,5.0,94,0.00,,---,0.00,383.00,VWS V14.01,2013-08-22 14:30:00,
2013-08-22 10:34:00,72.8,71.6,30.09,WSW,253,0.0,5.0,96,0.00,,---,0.00,682.00,VWS V14.01,2013-08-22 14:34:00,
2013-08-22 10:39:00,73.1,71.3,30.09,WSW,252,0.0,0.0,94,0.00,,---,0.00,308.00,VWS V14.01,2013-08-22 14:39:00,
2013-08-22 10:40:00,73.2,70.7,30.09,SW,229,0.0,7.0,92,0.00,,---,0.00,264.00,VWS V14.01,2013-08-22 14:40:00,
2013-08-22 10:44:00,73.3,70.8,30.09,SW,229,0.0,7.0,92,0.00,,---,0.00,155.00,VWS V14.01,2013-08-22 14:44:00,
2013-08-22 10:49:00,73.2,70.7,30.09,SW,229,0.0,3.0,92,0.00,,---,0.00,306.00,VWS V14.01,2013-08-22 14:49:00,
2013-08-22 10:50:00,74.1,71.0,30.09,SW,229,0.0,4.0,90,0.00,,---,0.00,874.00,VWS V14.01,2013-08-22 14:50:00,
2013-08-22 10:54:00,73.7,71.2,30.09,SW,229,1.0,4.0,92,0.00,,---,0.00,334.00,VWS V14.01,2013-08-22 14:54:00,
2013-08-22 10:59:00,74.2,71.4,30.09,SW,229,0.0,2.0,91,0.00,,---,0.00,524.00,VWS V14.01,2013-08-22 14:59:00,
2013-08-22 11:00:00,74.6,70.8,30.09,SW,229,0.0,3.0,88,0.00,,---,0.00,190.00,VWS V14.01,2013-08-22 15:00:00,
2013-08-22 11:04:00,74.6,71.2,30.09,SW,229,0.0,3.0,89,0.00,,---,0.00,192.00,VWS V14.01,2013-08-22 15:04:00,
2013-08-22 11:09:00,74.6,70.8,30.09,SW,229,3.0,3.0,88,0.00,,---,0.00,178.00,VWS V14.01,2013-08-22 15:09:00,
2013-08-22 11:10:00,74.2,71.1,30.09,SW,228,0.0,5.0,90,0.00,,---,0.00,410.00,VWS V14.01,2013-08-22 15:10:00,
2013-08-22 11:14:00,74.2,70.8,30.09,SW,228,2.0,5.0,89,0.00,,---,0.00,237.00,VWS V14.01,2013-08-22 15:14:00,
2013-08-22 11:19:00,74.2,70.8,30.09,SW,228,0.0,0.0,89,0.00,,---,0.00,410.00,VWS V14.01,2013-08-22 15:19:00,
2013-08-22 11:20:00,75.5,71.7,30.09,SW,228,0.0,3.0,88,0.00,,---,0.00,246.00,VWS V14.01,2013-08-22 15:20:00,
2013-08-22 11:24:00,74.9,71.8,30.09,SW,228,0.0,1.0,90,0.00,,---,0.00,715.00,VWS V14.01,2013-08-22 15:24:00,
2013-08-22 11:29:00,75.5,71.7,30.09,SW,228,0.0,1.0,88,0.00,,---,0.00,225.00,VWS V14.01,2013-08-22 15:29:00,
2013-08-22 11:30:00,75.3,70.5,30.09,SW,229,0.0,5.0,85,0.00,,---,0.00,163.00,VWS V14.01,2013-08-22 15:30:00,
2013-08-22 11:34:00,75.5,70.7,30.09,SW,229,0.0,5.0,85,0.00,,---,0.00,134.00,VWS V14.01,2013-08-22 15:34:00,
2013-08-22 11:39:00,75.2,70.7,30.09,SW,229,0.0,0.0,86,0.00,,---,0.00,174.00,VWS V14.01,2013-08-22 15:39:00,
2013-08-22 11:40:00,75.5,71.7,30.09,SW,229,0.0,2.0,88,0.00,,---,0.00,295.00,VWS V14.01,2013-08-22 15:40:00,
2013-08-22 11:44:00,75.3,70.8,30.09,SW,229,0.0,2.0,86,0.00,,---,0.00,241.00,VWS V14.01,2013-08-22 15:44:00,
2013-08-22 11:49:00,75.6,71.8,30.09,SW,229,0.0,0.0,88,0.00,,---,0.00,285.00,VWS V14.01,2013-08-22 15:49:00,
2013-08-22 11:50:00,76.4,72.2,30.08,SW,229,0.0,1.0,87,0.00,,---,0.00,561.00,VWS V14.01,2013-08-22 15:50:00,
2013-08-22 11:54:00,76.0,71.9,30.08,SW,229,0.0,1.0,87,0.00,,---,0.00,239.00,VWS V14.01,2013-08-22 15:54:00,
2013-08-22 12:00:00,76.6,71.4,30.08,SW,231,2.0,6.0,84,0.00,,---,0.00,561.00,VWS V14.01,2013-08-22 16:00:00,
2013-08-22 12:05:00,77.0,70.7,30.08,WSW,240,0.0,6.0,81,0.00,,---,0.00,302.00,VWS V14.01,2013-08-22 16:05:00,
2013-08-22 12:10:00,77.1,70.8,30.08,WSW,240,0.0,0.0,81,0.00,,---,0.00,425.00,VWS V14.01,2013-08-22 16:10:00,
2013-08-22 12:15:00,77.3,71.0,30.08,WSW,240,0.0,1.0,81,0.00,,---,0.00,271.00,VWS V14.01,2013-08-22 16:15:00,
2013-08-22 12:20:00,77.5,71.6,30.08,North,350,0.0,1.0,82,0.00,,---,0.00,376.00,VWS V14.01,2013-08-22 16:20:00,
2013-08-22 12:25:00,77.5,71.2,30.08,WNW,290,4.0,4.0,81,0.00,,---,0.00,348.00,VWS V14.01,2013-08-22 16:25:00,
2013-08-22 12:30:00,77.9,71.6,30.08,NNW,340,0.0,2.0,81,0.00,,---,0.00,962.00,VWS V14.01,2013-08-22 16:30:00,
2013-08-22 12:35:00,78.5,72.2,30.08,NNE,28,0.0,3.0,81,0.00,,---,0.00,889.00,VWS V14.01,2013-08-22 16:35:00,
2013-08-22 12:40:00,78.9,72.2,30.07,SW,232,0.0,3.0,80,0.00,,---,0.00,881.00,VWS V14.01,2013-08-22 16:40:00,
2013-08-22 12:45:00,79.1,71.7,30.07,SW,234,0.0,5.0,78,0.00,,---,0.00,889.00,VWS V14.01,2013-08-22 16:45:00,
2013-08-22 12:50:00,79.2,71.0,30.07,WSW,241,1.0,6.0,76,0.00,,---,0.00,911.00,VWS V14.01,2013-08-22 16:50:00,
2013-08-22 12:55:00,79.4,71.2,30.07,SW,231,0.0,6.0,76,0.00,,---,0.00,951.00,VWS V14.01,2013-08-22 16:55:00,
2013-08-22 13:00:00,79.8,72.3,30.07,SW,217,1.0,4.0,78,0.00,,---,0.00,923.00,VWS V14.01,2013-08-22 17:00:00,
2013-08-22 13:05:00,80.1,71.1,30.06,SSE,150,0.0,5.0,74,0.00,,---,0.00,909.00,VWS V14.01,2013-08-22 17:05:00,
2013-08-22 13:10:00,80.2,71.9,30.06,West,268,1.0,5.0,76,0.00,,---,0.00,911.00,VWS V14.01,2013-08-22 17:10:00,
2013-08-22 13:15:00,80.3,70.9,30.05,WNW,286,1.0,5.0,73,0.00,,---,0.00,935.00,VWS V14.01,2013-08-22 17:15:00,
2013-08-22 13:20:00,81.1,71.6,30.05,WNW,294,2.0,4.0,73,0.00,,---,0.00,942.00,VWS V14.01,2013-08-22 17:20:00,
2013-08-22 13:21:00,80.7,71.2,30.05,WSW,244,0.0,2.0,73,0.00,,---,0.00,932.00,VWS V14.01,2013-08-22 17:21:00,
2013-08-22 13:26:00,80.9,71.4,30.05,WSW,244,0.0,2.0,73,0.00,,---,0.00,921.00,VWS V14.01,2013-08-22 17:26:00,
2013-08-22 13:30:00,81.3,71.4,30.06,NW,313,0.0,4.0,72,0.00,,---,0.00,979.00,VWS V14.01,2013-08-22 17:30:00,
2013-08-22 13:31:00,81.2,72.1,30.05,NW,304,2.0,4.0,74,0.00,,---,0.00,976.00,VWS V14.01,2013-08-22 17:31:00,
2013-08-22 13:36:00,81.2,71.7,30.06,NW,313,0.0,4.0,73,0.00,,---,0.00,236.00,VWS V14.01,2013-08-22 17:36:00,
2013-08-22 13:40:00,82.1,70.5,30.05,WSW,257,1.0,2.0,68,0.00,,---,0.00,271.00,VWS V14.01,2013-08-22 17:40:00,
2013-08-22 13:41:00,81.5,70.4,30.06,West,259,0.0,2.0,69,0.00,,---,0.00,988.00,VWS V14.01,2013-08-22 17:41:00,
2013-08-22 13:46:00,82.0,70.8,30.05,West,277,1.0,2.0,69,0.00,,---,0.00,1013.00,VWS V14.01,2013-08-22 17:46:00,
2013-08-22 13:50:00,82.5,72.2,30.04,WSW,257,0.0,4.0,71,0.00,,---,0.00,933.00,VWS V14.01,2013-08-22 17:50:00,
2013-08-22 13:51:00,82.3,71.5,30.05,WSW,253,0.0,2.0,70,0.00,,---,0.00,1011.00,VWS V14.01,2013-08-22 17:51:00,
2013-08-22 13:56:00,82.4,72.1,30.05,WSW,257,0.0,4.0,71,0.00,,---,0.00,962.00,VWS V14.01,2013-08-22 17:56:00,
2013-08-22 14:00:00,83.2,72.0,30.04,WSW,250,2.0,4.0,69,0.00,,---,0.00,928.00,VWS V14.01,2013-08-22 18:00:00,
2013-08-22 14:01:00,82.8,71.2,30.04,WSW,257,0.0,1.0,68,0.00,,---,0.00,870.00,VWS V14.01,2013-08-22 18:01:00,
2013-08-22 14:06:00,83.1,71.4,30.04,SW,236,0.0,4.0,68,0.00,,---,0.00,765.00,VWS V14.01,2013-08-22 18:06:00,
2013-08-22 14:10:00,83.2,71.1,30.04,SW,231,0.0,7.0,67,0.00,,---,0.00,909.00,VWS V14.01,2013-08-22 18:10:00,
2013-08-22 14:11:00,83.2,70.7,30.04,WNW,282,0.0,7.0,66,0.00,,---,0.00,838.00,VWS V14.01,2013-08-22 18:11:00,
2013-08-22 14:16:00,83.2,72.0,30.04,NW,322,0.0,7.0,69,0.00,,---,0.00,819.00,VWS V14.01,2013-08-22 18:16:00,
2013-08-22 14:20:00,83.2,72.4,30.04,WSW,251,1.0,5.0,70,0.00,,---,0.00,916.00,VWS V14.01,2013-08-22 18:20:00,
2013-08-22 14:21:00,83.2,70.2,30.04,North,355,2.0,4.0,65,0.00,,---,0.00,874.00,VWS V14.01,2013-08-22 18:21:00,
2013-08-22 14:26:00,83.2,70.7,30.04,WSW,257,2.0,5.0,66,0.00,,---,0.00,916.00,VWS V14.01,2013-08-22 18:26:00,
2013-08-22 14:30:00,82.7,71.5,30.03,WSW,242,2.0,5.0,69,0.00,,---,0.00,837.00,VWS V14.01,2013-08-22 18:30:00,
2013-08-22 14:31:00,82.9,70.8,30.04,SW,236,0.0,5.0,67,0.00,,---,0.00,610.00,VWS V14.01,2013-08-22 18:31:00,
2013-08-22 14:36:00,82.7,71.1,30.04,WSW,252,0.0,5.0,68,0.00,,---,0.00,754.00,VWS V14.01,2013-08-22 18:36:00,
2013-08-22 14:40:00,82.9,71.7,30.03,WSW,246,2.0,6.0,69,0.00,,---,0.00,874.00,VWS V14.01,2013-08-22 18:40:00,
2013-08-22 14:42:00,82.7,70.6,30.03,WSW,248,0.0,4.0,67,0.00,,---,0.00,673.00,VWS V14.01,2013-08-22 18:42:00,
2013-08-22 14:47:00,82.8,71.2,30.03,SSW,202,3.0,6.0,68,0.00,,---,0.00,874.00,VWS V14.01,2013-08-22 18:47:00,
2013-08-22 14:50:00,83.2,71.1,30.02,West,267,1.0,4.0,67,0.00,,---,0.00,809.00,VWS V14.01,2013-08-22 18:50:00,
2013-08-22 14:52:00,83.0,70.9,30.02,WNW,286,0.0,4.0,67,0.00,,---,0.00,817.00,VWS V14.01,2013-08-22 18:52:00,
2013-08-22 14:57:00,83.2,71.1,30.02,West,269,1.0,4.0,67,0.00,,---,0.00,821.00,VWS V14.01,2013-08-22 18:57:00,
2013-08-22 15:00:00,83.0,70.5,30.02,SE,141,0.0,6.0,66,0.00,,---,0.00,819.00,VWS V14.01,2013-08-22 19:00:00,
2013-08-22 15:02:00,83.2,69.3,30.02,WSW,238,2.0,6.0,63,0.00,,---,0.00,835.00,VWS V14.01,2013-08-22 19:02:00,
2013-08-22 15:07:00,83.0,70.0,30.02,SE,141,2.0,6.0,65,0.00,,---,0.00,824.00,VWS V14.01,2013-08-22 19:07:00,
2013-08-22 15:10:00,83.7,70.7,30.02,WSW,238,0.0,6.0,65,0.00,,---,0.00,858.00,VWS V14.01,2013-08-22 19:10:00,
2013-08-22 15:12:00,83.3,72.1,30.02,SW,236,2.0,6.0,69,0.00,,---,0.00,854.00,VWS V14.01,2013-08-22 19:12:00,
2013-08-22 15:17:00,83.6,70.6,30.02,WSW,238,1.0,6.0,65,0.00,,---,0.00,858.00,VWS V14.01,2013-08-22 19:17:00,
2013-08-22 15:20:00,84.5,70.5,30.01,WSW,240,0.0,5.0,63,0.00,,---,0.00,853.00,VWS V14.01,2013-08-22 19:20:00,
2013-08-22 15:22:00,84.1,71.5,30.01,SSE,149,0.0,3.0,66,0.00,,---,0.00,807.00,VWS V14.01,2013-08-22 19:22:00,
2013-08-22 15:27:00,84.4,70.9,30.01,WSW,240,0.0,5.0,64,0.00,,---,0.00,856.00,VWS V14.01,2013-08-22 19:27:00,
2013-08-22 15:30:00,84.6,70.6,30.01,SW,232,2.0,7.0,63,0.00,,---,0.00,882.00,VWS V14.01,2013-08-22 19:30:00,
2013-08-22 15:32:00,84.3,70.3,30.01,SSW,200,0.0,7.0,63,0.00,,---,0.00,875.00,VWS V14.01,2013-08-22 19:32:00,
2013-08-22 15:37:00,84.5,71.4,30.01,SW,232,5.0,7.0,65,0.00,,---,0.00,870.00,VWS V14.01,2013-08-22 19:37:00,
2013-08-22 15:40:00,84.4,70.9,30.00,WSW,254,0.0,7.0,64,0.00,,---,0.00,851.00,VWS V14.01,2013-08-22 19:40:00,
2013-08-22 15:42:00,84.5,71.9,30.00,West,263,0.0,4.0,66,0.00,,---,0.00,842.00,VWS V14.01,2013-08-22 19:42:00,
2013-08-22 15:47:00,84.5,71.0,30.00,WSW,255,3.0,7.0,64,0.00,,---,0.00,861.00,VWS V14.01,2013-08-22 19:47:00,
2013-08-22 15:50:00,84.7,70.7,29.99,WSW,253,1.0,4.0,63,0.00,,---,0.00,791.00,VWS V14.01,2013-08-22 19:50:00,
2013-08-22 15:52:00,84.5,71.0,30.00,WSW,252,2.0,4.0,64,0.00,,---,0.00,508.00,VWS V14.01,2013-08-22 19:52:00,
2013-08-22 15:57:00,84.7,70.7,29.99,WSW,253,0.0,4.0,63,0.00,,---,0.00,770.00,VWS V14.01,2013-08-22 19:57:00,
2013-08-22 16:00:00,84.9,71.4,29.99,SW,236,0.0,5.0,64,0.00,,---,0.00,782.00,VWS V14.01,2013-08-22 20:00:00,
2013-08-22 16:03:00,84.8,70.3,29.99,WSW,254,2.0,3.0,62,0.00,,---,0.00,784.00,VWS V14.01,2013-08-22 20:03:00,
2013-08-22 16:08:00,84.9,72.3,29.99,SW,236,0.0,5.0,66,0.00,,---,0.00,782.00,VWS V14.01,2013-08-22 20:08:00,
2013-08-22 16:10:00,85.0,71.5,29.99,WSW,250,0.0,7.0,64,0.00,,---,0.00,751.00,VWS V14.01,2013-08-22 20:10:00,
2013-08-22 16:13:00,85.2,71.7,29.99,SW,227,5.0,7.0,64,0.00,,---,0.00,775.00,VWS V14.01,2013-08-22 20:13:00,
2013-08-22 16:18:00,85.0,71.0,29.99,WSW,250,0.0,7.0,63,0.00,,---,0.00,751.00,VWS V14.01,2013-08-22 20:18:00,
2013-08-22 16:20:00,84.5,70.1,29.99,WSW,238,0.0,5.0,62,0.00,,---,0.00,680.00,VWS V14.01,2013-08-22 20:20:00,
2013-08-22 16:23:00,84.9,70.9,29.99,WSW,250,1.0,5.0,63,0.00,,---,0.00,712.00,VWS V14.01,2013-08-22 20:23:00,
2013-08-22 16:28:00,84.5,70.1,29.99,WSW,238,0.0,5.0,62,0.00,,---,0.00,680.00,VWS V14.01,2013-08-22 20:28:00,
2013-08-22 16:30:00,84.6,70.2,29.99,SW,236,0.0,5.0,62,0.00,,---,0.00,654.00,VWS V14.01,2013-08-22 20:30:00,
2013-08-22 16:33:00,84.5,71.9,29.99,NW,311,1.0,5.0,66,0.00,,---,0.00,680.00,VWS V14.01,2013-08-22 20:33:00,
2013-08-22 16:38:00,84.6,70.2,29.99,SW,236,0.0,0.0,62,0.00,,---,0.00,654.00,VWS V14.01,2013-08-22 20:38:00,
2013-08-22 16:40:00,85.4,72.3,29.98,NW,310,0.0,5.0,65,0.00,,---,0.00,656.00,VWS V14.01,2013-08-22 20:40:00,
2013-08-22 16:43:00,85.0,72.4,29.98,SW,236,0.0,2.0,66,0.00,,---,0.00,717.00,VWS V14.01,2013-08-22 20:43:00,
2013-08-22 16:48:00,85.4,72.3,29.98,NW,309,0.0,1.0,65,0.00,,---,0.00,673.00,VWS V14.01,2013-08-22 20:48:00,
2013-08-22 16:50:00,85.3,71.8,29.98,SW,235,0.0,6.0,64,0.00,,---,0.00,548.00,VWS V14.01,2013-08-22 20:50:00,
2013-08-22 16:53:00,85.5,71.5,29.98,SW,236,3.0,5.0,63,0.00,,---,0.00,601.00,VWS V14.01,2013-08-22 20:53:00,
2013-08-22 16:58:00,85.2,71.7,29.98,SW,235,0.0,1.0,64,0.00,,---,0.00,548.00,VWS V14.01,2013-08-22 20:58:00,
2013-08-22 17:00:00,84.5,70.5,29.98,West,259,0.0,8.0,63,0.00,,---,0.00,504.00,VWS V14.01,2013-08-22 21:00:00,
2013-08-22 17:03:00,84.8,71.3,29.97,WSW,242,1.0,8.0,64,0.00,,---,0.00,598.00,VWS V14.01,2013-08-22 21:03:00,
2013-08-22 17:08:00,84.5,71.0,29.98,WSW,257,1.0,1.0,64,0.00,,---,0.00,504.00,VWS V14.01,2013-08-22 21:08:00,
2013-08-22 17:10:00,83.8,69.9,29.97,SW,219,0.0,5.0,63,0.00,,---,0.00,577.00,VWS V14.01,2013-08-22 21:10:00,
2013-08-22 17:13:00,84.2,70.2,29.97,SW,219,1.0,5.0,63,0.00,,---,0.00,209.00,VWS V14.01,2013-08-22 21:13:00,
2013-08-22 17:19:00,83.8,70.8,29.97,SW,219,0.0,0.0,65,0.00,,---,0.00,585.00,VWS V14.01,2013-08-22 21:19:00,
2013-08-22 17:20:00,84.0,71.9,29.97,SW,221,0.0,4.0,67,0.00,,---,0.00,438.00,VWS V14.01,2013-08-22 21:20:00,
2013-08-22 17:24:00,83.9,71.8,29.97,SW,217,0.0,2.0,67,0.00,,---,0.00,545.00,VWS V14.01,2013-08-22 21:24:00,
2013-08-22 17:29:00,84.0,72.3,29.97,SW,221,0.0,1.0,68,0.00,,---,0.00,413.00,VWS V14.01,2013-08-22 21:29:00,
2013-08-22 17:30:00,84.3,72.2,29.97,SW,234,1.0,4.0,67,0.00,,---,0.00,454.00,VWS V14.01,2013-08-22 21:30:00,
2013-08-22 17:34:00,84.0,71.9,29.96,SW,234,0.0,3.0,67,0.00,,---,0.00,480.00,VWS V14.01,2013-08-22 21:34:00,
2013-08-22 17:39:00,84.2,71.6,29.96,SW,232,1.0,7.0,66,0.00,,---,0.00,427.00,VWS V14.01,2013-08-22 21:39:00,
2013-08-22 17:40:00,84.2,72.5,29.96,SW,232,1.0,7.0,68,0.00,,---,0.00,452.00,VWS V14.01,2013-08-22 21:40:00,
2013-08-22 17:44:00,84.1,71.5,29.96,SW,232,0.0,7.0,66,0.00,,---,0.00,471.00,VWS V14.01,2013-08-22 21:44:00,
2013-08-22 17:49:00,84.2,71.2,29.96,SW,232,2.0,3.0,65,0.00,,---,0.00,452.00,VWS V14.01,2013-08-22 21:49:00,
2013-08-22 17:50:00,83.1,71.4,29.96,SW,232,0.0,5.0,68,0.00,,---,0.00,104.00,VWS V14.01,2013-08-22 21:50:00,
2013-08-22 17:54:00,83.5,70.9,29.96,SW,232,2.0,5.0,66,0.00,,---,0.00,439.00,VWS V14.01,2013-08-22 21:54:00,
2013-08-22 17:59:00,83.0,70.9,29.96,SW,232,0.0,0.0,67,0.00,,---,0.00,100.00,VWS V14.01,2013-08-22 21:59:00,
2013-08-22 18:00:00,82.1,70.9,29.96,SW,232,0.0,1.0,69,0.00,,---,0.00,90.00,VWS V14.01,2013-08-22 22:00:00,
2013-08-22 18:04:00,82.5,70.9,29.96,SW,232,0.0,1.0,68,0.00,,---,0.00,90.00,VWS V14.01,2013-08-22 22:04:00,
2013-08-22 18:09:00,81.9,70.3,29.96,SW,232,0.0,0.0,68,0.00,,---,0.00,88.00,VWS V14.01,2013-08-22 22:09:00,
2013-08-22 18:10:00,81.1,71.6,29.95,SW,232,0.0,0.0,73,0.00,,---,0.00,320.00,VWS V14.01,2013-08-22 22:10:00,
2013-08-22 18:14:00,81.4,71.1,29.95,SW,232,0.0,0.0,71,0.00,,---,0.00,98.00,VWS V14.01,2013-08-22 22:14:00,
2013-08-22 18:19:00,81.1,71.2,29.95,SW,232,0.0,0.0,72,0.00,,---,0.00,316.00,VWS V14.01,2013-08-22 22:19:00,
2013-08-22 18:20:00,81.3,71.0,29.95,SW,232,0.0,1.0,71,0.00,,---,0.00,272.00,VWS V14.01,2013-08-22 22:20:00,
2013-08-22 18:24:00,81.1,71.2,29.95,SW,232,0.0,1.0,72,0.00,,---,0.00,292.00,VWS V14.01,2013-08-22 22:24:00,
2013-08-22 18:30:00,81.4,70.3,29.95,SW,232,1.0,1.0,69,0.00,,---,0.00,258.00,VWS V14.01,2013-08-22 22:30:00,
2013-08-22 18:35:00,81.7,71.8,29.95,SW,232,0.0,1.0,72,0.00,,---,0.00,84.00,VWS V14.01,2013-08-22 22:35:00,
2013-08-22 18:40:00,81.6,70.9,29.96,SW,232,0.0,0.0,70,0.00,,---,0.00,63.00,VWS V14.01,2013-08-22 22:40:00,
2013-08-22 18:45:00,81.0,71.9,29.95,SW,232,0.0,1.0,74,0.00,,---,0.00,58.00,VWS V14.01,2013-08-22 22:45:00,
2013-08-22 18:50:00,80.5,71.5,29.96,SW,232,0.0,0.0,74,0.00,,---,0.00,155.00,VWS V14.01,2013-08-22 22:50:00,
2013-08-22 18:55:00,80.2,71.6,29.96,SW,232,0.0,0.0,75,0.00,,---,0.00,237.00,VWS V14.01,2013-08-22 22:55:00,
2013-08-22 19:00:00,80.6,72.3,29.95,SW,232,0.0,1.0,76,0.00,,---,0.00,153.00,VWS V14.01,2013-08-22 23:00:00,
2013-08-22 19:05:00,81.1,72.8,29.95,SW,232,0.0,1.0,76,0.00,,---,0.00,192.00,VWS V14.01,2013-08-22 23:05:00,
2013-08-22 19:10:00,81.6,72.1,29.95,SW,232,0.0,0.0,73,0.00,,---,0.00,148.00,VWS V14.01,2013-08-22 23:10:00,
2013-08-22 19:15:00,82.0,72.5,29.96,SW,232,0.0,0.0,73,0.00,,---,0.00,125.00,VWS V14.01,2013-08-22 23:15:00,
2013-08-22 19:20:00,82.5,73.0,29.95,SW,232,0.0,0.0,73,0.00,,---,0.00,98.00,VWS V14.01,2013-08-22 23:20:00,
2013-08-22 19:25:00,82.5,72.2,29.96,SW,232,0.0,1.0,71,0.00,,---,0.00,84.00,VWS V14.01,2013-08-22 23:25:00,
2013-08-22 19:30:00,82.5,73.4,29.96,SW,232,0.0,0.0,74,0.00,,---,0.00,65.00,VWS V14.01,2013-08-22 23:30:00,
2013-08-22 19:35:00,81.9,72.0,29.96,SW,232,0.0,1.0,72,0.00,,---,0.00,40.00,VWS V14.01,2013-08-22 23:35:00,
2013-08-22 19:40:00,81.0,71.5,29.96,SW,232,0.0,0.0,73,0.00,,---,0.00,32.00,VWS V14.01,2013-08-22 23:40:00,
2013-08-22 19:46:00,80.3,72.1,29.96,SW,232,0.0,0.0,76,0.00,,---,0.00,25.00,VWS V14.01,2013-08-22 23:46:00,
2013-08-22 19:50:00,78.5,71.4,29.97,SW,232,0.0,0.0,79,0.00,,---,0.00,14.00,VWS V14.01,2013-08-22 23:50:00,
2013-08-22 19:51:00,79.7,71.5,29.97,SW,232,0.0,0.0,76,0.00,,---,0.00,19.00,VWS V14.01,2013-08-22 23:51:00,
2013-08-22 19:56:00,78.8,71.4,29.97,SW,232,0.0,0.0,78,0.00,,---,0.00,16.00,VWS V14.01,2013-08-22 23:56:00,
2013-08-22 20:00:00,77.1,70.8,29.97,SW,232,0.0,0.0,81,0.00,,---,0.00,7.00,VWS V14.01,2013-08-23 00:00:00,
2013-08-22 20:01:00,78.0,71.0,29.97,SW,232,0.0,0.0,79,0.00,,---,0.00,11.00,VWS V14.01,2013-08-23 00:01:00,
2013-08-22 20:06:00,77.3,70.7,29.97,SW,232,0.0,0.0,80,0.00,,---,0.00,7.00,VWS V14.01,2013-08-23 00:06:00,
2013-08-22 20:10:00,75.8,70.3,29.97,SW,232,0.0,0.0,83,0.00,,---,0.00,0.00,VWS V14.01,2013-08-23 00:10:00,
2013-08-22 20:11:00,76.7,70.4,29.97,SW,232,0.0,0.0,81,0.00,,---,0.00,5.00,VWS V14.01,2013-08-23 00:11:00,
2013-08-22 20:16:00,76.1,70.2,29.97,SW,232,0.0,0.0,82,0.00,,---,0.00,0.00,VWS V14.01,2013-08-23 00:16:00,
2013-08-22 20:20:00,74.8,70.0,29.97,SW,232,0.0,0.0,85,0.00,,---,0.00,0.00,VWS V14.01,2013-08-23 00:20:00,
2013-08-22 20:21:00,75.5,70.3,29.97,SW,232,0.0,0.0,84,0.00,,---,0.00,0.00,VWS V14.01,2013-08-23 00:21:00,
2013-08-22 20:26:00,75.0,69.8,29.97,SW,232,0.0,0.0,84,0.00,,---,0.00,0.00,VWS V14.01,2013-08-23 00:26:00,
2013-08-22 20:30:00,73.9,69.8,29.98,SW,232,0.0,0.0,87,0.00,,---,0.00,0.00,VWS V14.01,2013-08-23 00:30:00,
2013-08-22 20:31:00,74.5,69.7,29.97,SW,232,0.0,0.0,85,0.00,,---,0.00,0.00,VWS V14.01,2013-08-23 00:31:00,
2013-08-22 20:36:00,74.0,69.9,29.98,SW,232,0.0,0.0,87,0.00,,---,0.00,0.00,VWS V14.01,2013-08-23 00:36:00,
2013-08-22 20:40:00,73.4,69.6,29.98,SW,232,0.0,0.0,88,0.00,,---,0.00,0.00,VWS V14.01,2013-08-23 00:40:00,
2013-08-22 20:41:00,73.6,69.5,29.98,SW,232,0.0,0.0,87,0.00,,---,0.00,0.00,VWS V14.01,2013-08-23 00:41:00,
2013-08-22 20:46:00,73.4,69.6,29.98,SW,232,0.0,0.0,88,0.00,,---,0.00,0.00,VWS V14.01,2013-08-23 00:46:00,
2013-08-22 20:50:00,73.3,69.5,29.98,SW,232,0.0,0.0,88,0.00,,---,0.00,0.00,VWS V14.01,2013-08-23 00:50:00,
2013-08-22 20:51:00,73.3,69.5,29.98,SW,232,0.0,0.0,88,0.00,,---,0.00,0.00,VWS V14.01,2013-08-23 00:51:00,
2013-08-22 20:56:00,73.3,69.5,29.98,SW,232,0.0,0.0,88,0.00,,---,0.00,0.00,VWS V14.01,2013-08-23 00:56:00,
2013-08-22 21:00:00,72.9,69.1,29.98,SW,232,0.0,0.0,88,0.00,,---,0.00,0.00,VWS V14.01,2013-08-23 01:00:00,
2013-08-22 21:01:00,73.1,69.3,29.98,SW,232,0.0,0.0,88,0.00,,---,0.00,0.00,VWS V14.01,2013-08-23 01:01:00,
2013-08-22 21:07:00,72.9,69.1,29.98,SW,232,0.0,0.0,88,0.00,,---,0.00,0.00,VWS V14.01,2013-08-23 01:07:00,
2013-08-22 21:10:00,72.4,69.0,29.98,SW,232,0.0,0.0,89,0.00,,---,0.00,0.00,VWS V14.01,2013-08-23 01:10:00,
2013-08-22 21:12:00,72.7,69.3,29.98,SW,232,0.0,0.0,89,0.00,,---,0.00,0.00,VWS V14.01,2013-08-23 01:12:00,
2013-08-22 21:17:00,72.4,69.0,29.98,SW,232,0.0,0.0,89,0.00,,---,0.00,0.00,VWS V14.01,2013-08-23 01:17:00,
2013-08-22 21:20:00,71.9,68.8,29.98,SW,232,0.0,0.0,90,0.00,,---,0.00,0.00,VWS V14.01,2013-08-23 01:20:00,
2013-08-22 21:22:00,72.2,68.8,29.98,SW,232,0.0,0.0,89,0.00,,---,0.00,0.00,VWS V14.01,2013-08-23 01:22:00,
2013-08-22 21:27:00,71.9,68.5,29.98,SW,232,0.0,0.0,89,0.00,,---,0.00,0.00,VWS V14.01,2013-08-23 01:27:00,
2013-08-22 21:30:00,71.5,68.1,29.98,SW,232,0.0,0.0,89,0.00,,---,0.00,0.00,VWS V14.01,2013-08-23 01:30:00,
2013-08-22 21:32:00,71.7,68.3,29.98,SW,232,0.0,0.0,89,0.00,,---,0.00,0.00,VWS V14.01,2013-08-23 01:32:00,
2013-08-22 21:37:00,71.5,68.1,29.98,SW,232,0.0,0.0,89,0.00,,---,0.00,0.00,VWS V14.01,2013-08-23 01:37:00,
2013-08-22 21:40:00,71.4,68.0,29.98,SW,232,0.0,0.0,89,0.00,,---,0.00,0.00,VWS V14.01,2013-08-23 01:40:00,
2013-08-22 21:42:00,71.5,68.1,29.98,SW,232,0.0,0.0,89,0.00,,---,0.00,0.00,VWS V14.01,2013-08-23 01:42:00,
2013-08-22 21:47:00,71.4,68.0,29.98,SW,232,0.0,0.0,89,0.00,,---,0.00,0.00,VWS V14.01,2013-08-23 01:47:00,
2013-08-22 21:50:00,71.5,67.8,29.99,SW,232,0.0,1.0,88,0.00,,---,0.00,0.00,VWS V14.01,2013-08-23 01:50:00,
2013-08-22 21:52:00,71.3,67.6,29.98,SW,232,0.0,0.0,88,0.00,,---,0.00,0.00,VWS V14.01,2013-08-23 01:52:00,
2013-08-22 21:57:00,71.5,67.8,29.99,SW,232,0.0,1.0,88,0.00,,---,0.00,0.00,VWS V14.01,2013-08-23 01:57:00,
2013-08-22 22:00:00,71.4,67.7,29.99,SW,232,0.0,0.0,88,0.00,,---,0.00,0.00,VWS V14.01,2013-08-23 02:00:00,
2013-08-22 22:02:00,71.5,67.8,29.99,SW,232,0.0,0.0,88,0.00,,---,0.00,0.00,VWS V14.01,2013-08-23 02:02:00,
2013-08-22 22:07:00,71.4,67.7,29.99,SW,232,0.0,0.0,88,0.00,,---,0.00,0.00,VWS V14.01,2013-08-23 02:07:00,
2013-08-22 22:10:00,71.0,67.6,29.99,SW,232,0.0,0.0,89,0.00,,---,0.00,0.00,VWS V14.01,2013-08-23 02:10:00,
2013-08-22 22:12:00,71.2,67.5,29.99,SW,232,0.0,0.0,88,0.00,,---,0.00,0.00,VWS V14.01,2013-08-23 02:12:00,
2013-08-22 22:18:00,71.0,67.6,29.99,SW,232,0.0,0.0,89,0.00,,---,0.00,0.00,VWS V14.01,2013-08-23 02:18:00,
2013-08-22 22:20:00,70.7,67.3,29.99,SW,232,0.0,0.0,89,0.00,,---,0.00,0.00,VWS V14.01,2013-08-23 02:20:00,
2013-08-22 22:23:00,70.9,67.5,29.99,SW,232,0.0,0.0,89,0.00,,---,0.00,0.00,VWS V14.01,2013-08-23 02:23:00,
2013-08-22 22:28:00,70.7,67.3,29.99,SW,232,0.0,0.0,89,0.00,,---,0.00,0.00,VWS V14.01,2013-08-23 02:28:00,
2013-08-22 22:30:00,70.4,67.3,29.99,SW,232,0.0,0.0,90,0.00,,---,0.00,0.00,VWS V14.01,2013-08-23 02:30:00,
2013-08-22 22:33:00,70.6,67.5,29.99,SW,232,0.0,0.0,90,0.00,,---,0.00,0.00,VWS V14.01,2013-08-23 02:33:00,
2013-08-22 22:38:00,70.4,67.3,29.99,SW,232,0.0,0.0,90,0.00,,---,0.00,0.00,VWS V14.01,2013-08-23 02:38:00,
2013-08-22 22:40:00,70.1,67.4,29.99,SW,232,0.0,0.0,91,0.00,,---,0.00,0.00,VWS V14.01,2013-08-23 02:40:00,
2013-08-22 22:43:00,70.2,67.1,29.99,SW,232,0.0,0.0,90,0.00,,---,0.00,0.00,VWS V14.01,2013-08-23 02:43:00,
2013-08-22 22:48:00,70.1,67.4,29.99,SW,232,0.0,0.0,91,0.00,,---,0.00,0.00,VWS V14.01,2013-08-23 02:48:00,
2013-08-22 22:50:00,69.8,67.1,29.99,SW,232,0.0,0.0,91,0.00,,---,0.00,0.00,VWS V14.01,2013-08-23 02:50:00,
2013-08-22 22:53:00,69.9,67.2,29.99,SW,232,0.0,0.0,91,0.00,,---,0.00,0.00,VWS V14.01,2013-08-23 02:53:00,
2013-08-22 22:58:00,69.8,67.1,29.99,SW,232,0.0,0.0,91,0.00,,---,0.00,0.00,VWS V14.01,2013-08-23 02:58:00,
2013-08-22 23:00:00,69.7,67.0,29.99,SW,232,0.0,0.0,91,0.00,,---,0.00,0.00,VWS V14.01,2013-08-23 03:00:00,
2013-08-22 23:03:00,69.7,67.0,29.99,SW,232,0.0,0.0,91,0.00,,---,0.00,0.00,VWS V14.01,2013-08-23 03:03:00,
2013-08-22 23:08:00,69.7,67.0,29.99,SW,232,0.0,0.0,91,0.00,,---,0.00,0.00,VWS V14.01,2013-08-23 03:08:00,
2013-08-22 23:10:00,69.8,67.1,29.99,SW,232,0.0,0.0,91,0.00,,---,0.00,0.00,VWS V14.01,2013-08-23 03:10:00,
2013-08-22 23:13:00,69.7,67.0,29.99,SW,232,0.0,0.0,91,0.00,,---,0.00,0.00,VWS V14.01,2013-08-23 03:13:00,
2013-08-22 23:18:00,69.8,67.1,29.99,SW,232,0.0,0.0,91,0.00,,---,0.00,0.00,VWS V14.01,2013-08-23 03:18:00,
2013-08-22 23:20:00,69.8,67.4,29.99,SW,232,0.0,0.0,92,0.00,,---,0.00,0.00,VWS V14.01,2013-08-23 03:20:00,
2013-08-22 23:23:00,69.8,67.4,29.99,SW,232,0.0,0.0,92,0.00,,---,0.00,0.00,VWS V14.01,2013-08-23 03:23:00,
2013-08-22 23:29:00,69.8,67.4,29.99,SW,232,0.0,0.0,92,0.00,,---,0.00,0.00,VWS V14.01,2013-08-23 03:29:00,
2013-08-22 23:30:00,69.9,67.5,29.99,SW,232,0.0,0.0,92,0.00,,---,0.00,0.00,VWS V14.01,2013-08-23 03:30:00,
2013-08-22 23:34:00,69.8,67.4,29.99,SW,232,0.0,0.0,92,0.00,,---,0.00,0.00,VWS V14.01,2013-08-23 03:34:00,
2013-08-22 23:39:00,69.9,67.5,29.99,SW,232,0.0,0.0,92,0.00,,---,0.00,0.00,VWS V14.01,2013-08-23 03:39:00,
2013-08-22 23:40:00,69.8,67.4,29.98,SW,232,0.0,0.0,92,0.00,,---,0.00,0.00,VWS V14.01,2013-08-23 03:40:00,
2013-08-22 23:44:00,69.8,67.4,29.99,SW,232,0.0,0.0,92,0.00,,---,0.00,0.00,VWS V14.01,2013-08-23 03:44:00,
2013-08-22 23:49:00,69.8,67.1,29.98,SW,232,0.0,0.0,91,0.00,,---,0.00,0.00,VWS V14.01,2013-08-23 03:49:00,
2013-08-22 23:50:00,69.9,67.5,29.98,SW,232,0.0,0.0,92,0.00,,---,0.00,0.00,VWS V14.01,2013-08-23 03:50:00,
2013-08-22 23:54:00,69.9,67.5,29.98,SW,232,0.0,0.0,92,0.00,,---,0.00,0.00,VWS V14.01,2013-08-23 03:54:00,
2013-08-22 23:59:00,69.9,67.2,29.99,SW,232,0.0,0.0,91,0.00,,---,0.00,0.00,VWS V14.01,2013-08-23 03:59:00,